Time,TemperatureF,DewpointF,PressureIn,WindDirection,WindDirectionDegrees,WindSpeedMPH,WindSpeedGustMPH,Humidity,HourlyPrecipIn,Conditions,Clouds,dailyrainin,SoftwareType,DateUTC
2013-08-02 00:00:00,61.5,60.0,29.93,SSW,197,0.0,1.0,93,0.00,,,0.00,weatherlink.com 1.10,2013-08-02 07:00:00,
2013-08-02 00:15:00,61.1,59.0,29.93,SSW,197,0.0,0.0,93,0.00,,,0.00,weatherlink.com 1.10,2013-08-02 07:15:00,
2013-08-02 00:30:00,60.5,59.0,29.93,SSW,197,0.0,0.0,93,0.00,,,0.00,weatherlink.com 1.10,2013-08-02 07:30:00,
2013-08-02 00:45:00,61.1,60.0,29.92,SE,144,1.0,3.0,95,0.00,,,0.00,weatherlink.com 1.10,2013-08-02 07:45:00,
2013-08-02 01:00:00,61.8,60.0,29.93,ESE,113,1.0,4.0,95,0.00,,,0.00,weatherlink.com 1.10,2013-08-02 08:00:00,
2013-08-02 01:15:00,62.2,61.0,29.93,East,92,0.0,1.0,94,0.00,,,0.00,weatherlink.com 1.10,2013-08-02 08:15:00,
2013-08-02 01:30:00,62.6,60.0,29.93,ESE,118,0.0,4.0,92,0.00,,,0.00,weatherlink.com 1.10,2013-08-02 08:30:00,
2013-08-02 01:45:00,62.8,60.5,29.92,ESE,112,0.0,3.0,92,0.00,,---,0.00,VWS V14.01,2013-08-02 08:45:00,
2013-08-02 01:46:00,62.8,61.0,29.92,ESE,119,0.0,3.0,92,0.00,,,0.00,weatherlink.com 1.10,2013-08-02 08:46:00,
2013-08-02 02:00:00,63.0,60.3,29.92,ESE,112,0.0,8.0,91,0.00,,---,0.00,VWS V14.01,2013-08-02 09:00:00,
2013-08-02 02:01:00,63.1,61.0,29.91,ESE,115,1.0,8.0,91,0.00,,,0.00,weatherlink.com 1.10,2013-08-02 09:01:00,
2013-08-02 02:15:00,63.1,60.0,29.91,ESE,115,0.0,2.0,90,0.00,,,0.00,weatherlink.com 1.10,2013-08-02 09:15:00,
2013-08-02 02:30:00,63.1,60.1,29.91,ESE,112,1.0,3.0,90,0.00,,---,0.00,VWS V14.01,2013-08-02 09:30:00,
2013-08-02 02:31:00,63.1,60.0,29.91,ESE,115,0.0,3.0,90,0.00,,,0.00,weatherlink.com 1.10,2013-08-02 09:31:00,
2013-08-02 02:45:00,63.2,60.2,29.91,ESE,112,0.0,3.0,90,0.00,,---,0.00,VWS V14.01,2013-08-02 09:45:00,
2013-08-02 02:46:00,63.2,60.0,29.91,ESE,110,3.0,4.0,90,0.00,,,0.00,weatherlink.com 1.10,2013-08-02 09:46:00,
2013-08-02 03:00:00,63.4,60.4,29.91,ESE,112,1.0,6.0,90,0.00,,---,0.00,VWS V14.01,2013-08-02 10:00:00,
2013-08-02 03:01:00,63.5,61.0,29.91,South,170,0.0,6.0,90,0.00,,,0.00,weatherlink.com 1.10,2013-08-02 10:01:00,
2013-08-02 03:15:00,63.5,60.2,29.91,ESE,112,1.0,5.0,89,0.00,,---,0.00,VWS V14.01,2013-08-02 10:15:00,
2013-08-02 03:16:00,63.5,60.0,29.90,ESE,104,0.0,3.0,89,0.00,,,0.00,weatherlink.com 1.10,2013-08-02 10:16:00,
2013-08-02 03:30:00,63.5,60.2,29.90,South,180,0.0,4.0,89,0.00,,---,0.00,VWS V14.01,2013-08-02 10:30:00,
2013-08-02 03:31:00,63.5,60.0,29.90,South,184,1.0,4.0,89,0.00,,,0.00,weatherlink.com 1.10,2013-08-02 10:31:00,
2013-08-02 03:45:00,63.5,60.2,29.90,South,180,0.0,6.0,89,0.00,,---,0.00,VWS V14.01,2013-08-02 10:45:00,
2013-08-02 03:46:00,63.5,60.0,29.90,SE,142,0.0,6.0,88,0.00,,,0.00,weatherlink.com 1.10,2013-08-02 10:46:00,
2013-08-02 04:00:00,63.5,59.9,29.90,SE,135,0.0,7.0,88,0.00,,---,0.00,VWS V14.01,2013-08-02 11:00:00,
2013-08-02 04:01:00,63.5,60.0,29.90,South,178,1.0,7.0,88,0.00,,,0.00,weatherlink.com 1.10,2013-08-02 11:01:00,
2013-08-02 04:15:00,63.5,59.9,29.90,South,180,0.0,3.0,88,0.00,,---,0.00,VWS V14.01,2013-08-02 11:15:00,
2013-08-02 04:16:00,63.5,60.0,29.89,SSE,162,0.0,2.0,88,0.00,,,0.00,weatherlink.com 1.10,2013-08-02 11:16:00,
2013-08-02 04:30:00,63.5,59.9,29.90,South,180,0.0,3.0,88,0.00,,---,0.00,VWS V14.01,2013-08-02 11:30:00,
2013-08-02 04:31:00,63.5,60.0,29.90,South,171,0.0,2.0,88,0.00,,,0.00,weatherlink.com 1.10,2013-08-02 11:31:00,
2013-08-02 04:45:00,63.6,60.0,29.90,ESE,112,1.0,6.0,88,0.00,,---,0.00,VWS V14.01,2013-08-02 11:45:00,
2013-08-02 04:46:00,63.5,60.0,29.90,SSE,164,0.0,6.0,88,0.00,,,0.00,weatherlink.com 1.10,2013-08-02 11:46:00,
2013-08-02 05:00:00,63.5,59.9,29.90,SSE,158,0.0,3.0,88,0.00,,---,0.00,VWS V14.01,2013-08-02 12:00:00,
2013-08-02 05:01:00,63.5,60.0,29.90,SSE,165,1.0,2.0,88,0.00,,,0.00,weatherlink.com 1.10,2013-08-02 12:01:00,
2013-08-02 05:15:00,63.5,59.9,29.90,SSE,158,0.0,4.0,88,0.00,,---,0.00,VWS V14.01,2013-08-02 12:15:00,
2013-08-02 05:16:00,63.5,60.0,29.90,SSE,165,0.0,4.0,88,0.00,,,0.00,weatherlink.com 1.10,2013-08-02 12:16:00,
2013-08-02 05:30:00,63.5,59.9,29.90,SSE,158,0.0,2.0,88,0.00,,---,0.00,VWS V14.01,2013-08-02 12:30:00,
2013-08-02 05:31:00,63.5,60.0,29.90,SSE,160,0.0,2.0,88,0.00,,,0.00,weatherlink.com 1.10,2013-08-02 12:31:00,
2013-08-02 05:45:00,63.5,59.9,29.91,SSE,158,0.0,3.0,88,0.00,,---,0.00,VWS V14.01,2013-08-02 12:45:00,
2013-08-02 05:46:00,63.5,60.0,29.91,South,189,0.0,3.0,88,0.00,,,0.00,weatherlink.com 1.10,2013-08-02 12:46:00,
2013-08-02 06:00:00,63.5,59.9,29.91,South,180,0.0,2.0,88,0.00,,---,0.00,VWS V14.01,2013-08-02 13:00:00,
2013-08-02 06:01:00,63.5,60.0,29.91,South,189,0.0,2.0,88,0.00,,,0.00,weatherlink.com 1.10,2013-08-02 13:01:00,
2013-08-02 06:15:00,63.5,59.9,29.91,South,180,0.0,3.0,88,0.00,,---,0.00,VWS V14.01,2013-08-02 13:15:00,
2013-08-02 06:16:00,63.5,60.0,29.91,South,189,0.0,3.0,88,0.00,,,0.00,weatherlink.com 1.10,2013-08-02 13:16:00,
2013-08-02 06:30:00,63.5,59.9,29.91,South,180,0.0,1.0,88,0.00,,---,0.00,VWS V14.01,2013-08-02 13:30:00,
2013-08-02 06:31:00,63.5,60.0,29.91,South,189,0.0,1.0,88,0.00,,,0.00,weatherlink.com 1.10,2013-08-02 13:31:00,
2013-08-02 06:45:00,63.5,59.9,29.91,South,180,0.0,0.0,88,0.00,,---,0.00,VWS V14.01,2013-08-02 13:45:00,
2013-08-02 06:46:00,63.6,60.0,29.91,South,189,0.0,0.0,88,0.00,,,0.00,weatherlink.com 1.10,2013-08-02 13:46:00,
2013-08-02 07:00:00,63.6,60.0,29.91,South,180,0.0,2.0,88,0.00,,---,0.00,VWS V14.01,2013-08-02 14:00:00,
2013-08-02 07:01:00,63.6,60.0,29.91,South,189,0.0,2.0,88,0.00,,,0.00,weatherlink.com 1.10,2013-08-02 14:01:00,
2013-08-02 07:15:00,63.8,59.9,29.91,South,180,0.0,2.0,87,0.00,,---,0.00,VWS V14.01,2013-08-02 14:15:00,
2013-08-02 07:16:00,63.8,60.0,29.91,South,189,0.0,1.0,87,0.00,,,0.00,weatherlink.com 1.10,2013-08-02 14:16:00,
2013-08-02 07:30:00,64.0,60.4,29.92,South,180,0.0,1.0,88,0.00,,---,0.00,VWS V14.01,2013-08-02 14:30:00,
2013-08-02 07:31:00,64.0,60.0,29.92,South,189,0.0,1.0,87,0.00,,,0.00,weatherlink.com 1.10,2013-08-02 14:31:00,
2013-08-02 07:45:00,64.1,60.2,29.93,South,180,0.0,3.0,87,0.00,,---,0.00,VWS V14.01,2013-08-02 14:45:00,
2013-08-02 07:46:00,64.1,60.0,29.93,South,189,3.0,3.0,87,0.00,,,0.00,weatherlink.com 1.10,2013-08-02 14:46:00,
2013-08-02 08:00:00,64.3,60.3,29.93,South,180,1.0,4.0,87,0.00,,---,0.00,VWS V14.01,2013-08-02 15:00:00,
2013-08-02 08:01:00,64.4,60.0,29.93,SSW,198,0.0,4.0,86,0.00,,,0.00,weatherlink.com 1.10,2013-08-02 15:01:00,
2013-08-02 08:15:00,64.6,60.3,29.93,SSW,202,1.0,4.0,86,0.00,,---,0.00,VWS V14.01,2013-08-02 15:15:00,
2013-08-02 08:30:00,65.0,60.4,29.94,SSW,202,1.0,4.0,85,0.00,,---,0.00,VWS V14.01,2013-08-02 15:30:00,
2013-08-02 08:31:00,65.0,60.0,29.94,SSW,199,0.0,4.0,85,0.00,,,0.00,weatherlink.com 1.10,2013-08-02 15:31:00,
2013-08-02 08:45:00,65.5,60.9,29.94,SSW,202,0.0,4.0,85,0.00,,---,0.00,VWS V14.01,2013-08-02 15:45:00,
2013-08-02 08:46:00,65.6,61.0,29.94,SSW,199,1.0,5.0,85,0.00,,,0.00,weatherlink.com 1.10,2013-08-02 15:46:00,
2013-08-02 09:00:00,66.1,61.1,29.94,SSW,202,1.0,5.0,84,0.00,,---,0.00,VWS V14.01,2013-08-02 16:00:00,
2013-08-02 09:01:00,66.1,61.0,29.94,SSW,199,2.0,3.0,83,0.00,,,0.00,weatherlink.com 1.10,2013-08-02 16:01:00,
2013-08-02 09:15:00,66.4,61.1,29.94,SSW,202,1.0,3.0,83,0.00,,---,0.00,VWS V14.01,2013-08-02 16:15:00,
2013-08-02 09:16:00,66.4,61.0,29.94,SSW,200,2.0,3.0,82,0.00,,,0.00,weatherlink.com 1.10,2013-08-02 16:16:00,
2013-08-02 09:30:00,66.5,60.8,29.94,West,270,1.0,4.0,82,0.00,,---,0.00,VWS V14.01,2013-08-02 16:30:00,
2013-08-02 09:31:00,66.6,61.0,29.94,West,273,0.0,2.0,83,0.00,,,0.00,weatherlink.com 1.10,2013-08-02 16:31:00,
2013-08-02 09:45:00,67.3,61.6,29.94,West,270,1.0,4.0,82,0.00,,---,0.00,VWS V14.01,2013-08-02 16:45:00,
2013-08-02 09:46:00,67.4,61.0,29.94,SSW,201,0.0,5.0,81,0.00,,,0.00,weatherlink.com 1.10,2013-08-02 16:46:00,
2013-08-02 10:00:00,67.7,61.7,29.94,SSW,202,1.0,5.0,81,0.00,,---,0.00,VWS V14.01,2013-08-02 17:00:00,
2013-08-02 10:01:00,67.9,62.0,29.94,SSW,195,0.0,3.0,80,0.00,,,0.00,weatherlink.com 1.10,2013-08-02 17:01:00,
2013-08-02 10:15:00,68.1,61.3,29.94,SSW,202,1.0,4.0,79,0.00,,---,0.00,VWS V14.01,2013-08-02 17:15:00,
2013-08-02 10:16:00,68.2,61.0,29.94,SSW,209,1.0,5.0,79,0.00,,,0.00,weatherlink.com 1.10,2013-08-02 17:16:00,
2013-08-02 10:30:00,68.3,61.2,29.94,SSW,202,1.0,5.0,78,0.00,,---,0.00,VWS V14.01,2013-08-02 17:30:00,
2013-08-02 10:45:00,69.2,62.1,29.94,SSW,202,1.0,6.0,78,0.00,,---,0.00,VWS V14.01,2013-08-02 17:45:00,
2013-08-02 10:46:00,69.4,62.0,29.94,SW,227,0.0,6.0,78,0.00,,,0.00,weatherlink.com 1.10,2013-08-02 17:46:00,
2013-08-02 11:00:00,70.9,62.2,29.94,SW,225,1.0,4.0,74,0.00,,---,0.00,VWS V14.01,2013-08-02 18:00:00,
2013-08-02 11:01:00,71.5,63.0,29.94,North,355,0.0,3.0,75,0.00,,,0.00,weatherlink.com 1.10,2013-08-02 18:01:00,
2013-08-02 11:15:00,73.1,63.2,29.94,SSW,202,2.0,7.0,71,0.00,,---,0.00,VWS V14.01,2013-08-02 18:15:00,
2013-08-02 11:16:00,72.9,63.0,29.93,West,271,5.0,7.0,71,0.00,,,0.00,weatherlink.com 1.10,2013-08-02 18:16:00,
2013-08-02 11:30:00,72.8,63.3,29.93,WSW,248,3.0,9.0,72,0.00,,---,0.00,VWS V14.01,2013-08-02 18:30:00,
2013-08-02 11:31:00,73.0,63.0,29.93,West,266,2.0,8.0,70,0.00,,,0.00,weatherlink.com 1.10,2013-08-02 18:31:00,
2013-08-02 11:45:00,73.6,63.2,29.93,SSW,202,3.0,8.0,70,0.00,,---,0.00,VWS V14.01,2013-08-02 18:45:00,
2013-08-02 11:46:00,73.8,63.0,29.93,SW,218,3.0,7.0,70,0.00,,,0.00,weatherlink.com 1.10,2013-08-02 18:46:00,
2013-08-02 12:00:00,74.1,63.3,29.93,SSW,202,2.0,7.0,69,0.00,,---,0.00,VWS V14.01,2013-08-02 19:00:00,
2013-08-02 12:01:00,74.3,63.0,29.93,West,272,5.0,8.0,69,0.00,,,0.00,weatherlink.com 1.10,2013-08-02 19:01:00,
2013-08-02 12:15:00,73.9,63.5,29.93,WSW,248,3.0,10.0,70,0.00,,---,0.00,VWS V14.01,2013-08-02 19:15:00,
2013-08-02 12:16:00,74.1,63.0,29.93,WSW,248,2.0,10.0,69,0.00,,,0.00,weatherlink.com 1.10,2013-08-02 19:16:00,
2013-08-02 12:30:00,73.9,62.7,29.93,SSW,202,4.0,10.0,68,0.00,,---,0.00,VWS V14.01,2013-08-02 19:30:00,
2013-08-02 12:31:00,74.2,63.0,29.93,SSW,192,6.0,11.0,69,0.00,,,0.00,weatherlink.com 1.10,2013-08-02 19:31:00,
2013-08-02 12:45:00,74.0,62.8,29.93,SSW,202,4.0,11.0,68,0.00,,---,0.00,VWS V14.01,2013-08-02 19:45:00,
2013-08-02 12:47:00,73.9,62.0,29.93,WSW,252,3.0,9.0,67,0.00,,,0.00,weatherlink.com 1.10,2013-08-02 19:47:00,
2013-08-02 13:00:00,73.7,62.9,29.93,SW,225,3.0,9.0,69,0.00,,---,0.00,VWS V14.01,2013-08-02 20:00:00,
2013-08-02 13:02:00,73.8,63.0,29.93,WSW,249,5.0,7.0,69,0.00,,,0.00,weatherlink.com 1.10,2013-08-02 20:02:00,
2013-08-02 13:15:00,74.0,62.8,29.92,SSW,202,3.0,8.0,68,0.00,,---,0.00,VWS V14.01,2013-08-02 20:15:00,
2013-08-02 13:30:00,74.4,63.2,29.92,SSW,202,4.0,9.0,68,0.00,,---,0.00,VWS V14.01,2013-08-02 20:30:00,
2013-08-02 13:32:00,74.3,63.0,29.92,SW,231,3.0,10.0,67,0.00,,,0.00,weatherlink.com 1.10,2013-08-02 20:32:00,
2013-08-02 13:45:00,74.2,63.0,29.92,SSW,202,3.0,10.0,68,0.00,,---,0.00,VWS V14.01,2013-08-02 20:45:00,
2013-08-02 13:47:00,74.2,63.0,29.92,SW,226,2.0,9.0,68,0.00,,,0.00,weatherlink.com 1.10,2013-08-02 20:47:00,
2013-08-02 14:00:00,74.5,62.8,29.92,SSW,202,3.0,10.0,67,0.00,,---,0.00,VWS V14.01,2013-08-02 21:00:00,
2013-08-02 14:02:00,74.3,63.0,29.91,West,265,9.0,10.0,67,0.00,,,0.00,weatherlink.com 1.10,2013-08-02 21:02:00,
2013-08-02 14:15:00,74.6,62.5,29.91,WSW,248,4.0,11.0,66,0.00,,---,0.00,VWS V14.01,2013-08-02 21:15:00,
2013-08-02 14:17:00,74.5,62.0,29.91,SW,227,4.0,9.0,66,0.00,,,0.00,weatherlink.com 1.10,2013-08-02 21:17:00,
2013-08-02 14:30:00,74.4,63.2,29.91,SW,225,4.0,9.0,68,0.00,,---,0.00,VWS V14.01,2013-08-02 21:30:00,
2013-08-02 14:32:00,74.9,63.0,29.91,SSW,200,5.0,9.0,67,0.00,,,0.00,weatherlink.com 1.10,2013-08-02 21:32:00,
2013-08-02 14:45:00,75.2,63.1,29.91,SSW,202,4.0,10.0,66,0.00,,---,0.00,VWS V14.01,2013-08-02 21:45:00,
2013-08-02 14:47:00,75.1,63.0,29.91,WSW,246,10.0,10.0,66,0.00,,,0.00,weatherlink.com 1.10,2013-08-02 21:47:00,
2013-08-02 15:00:00,75.2,62.6,29.90,SSW,202,4.0,10.0,65,0.00,,---,0.00,VWS V14.01,2013-08-02 22:00:00,
2013-08-02 15:02:00,75.2,63.0,29.90,SSW,201,4.0,11.0,66,0.00,,,0.00,weatherlink.com 1.10,2013-08-02 22:02:00,
2013-08-02 15:15:00,75.4,62.8,29.90,SSW,202,4.0,11.0,65,0.00,,---,0.00,VWS V14.01,2013-08-02 22:15:00,
2013-08-02 15:17:00,75.4,63.0,29.90,SW,217,2.0,10.0,66,0.00,,,0.00,weatherlink.com 1.10,2013-08-02 22:17:00,
2013-08-02 15:30:00,75.7,62.7,29.90,SSW,202,5.0,11.0,64,0.00,,---,0.00,VWS V14.01,2013-08-02 22:30:00,
2013-08-02 15:32:00,75.5,63.0,29.89,WSW,253,4.0,10.0,65,0.00,,,0.00,weatherlink.com 1.10,2013-08-02 22:32:00,
2013-08-02 15:45:00,74.9,62.8,29.89,SSW,202,5.0,10.0,66,0.00,,---,0.00,VWS V14.01,2013-08-02 22:45:00,
2013-08-02 15:47:00,75.1,63.0,29.89,SSW,198,6.0,10.0,66,0.00,,,0.00,weatherlink.com 1.10,2013-08-02 22:47:00,
2013-08-02 16:00:00,75.2,63.1,29.89,SSW,202,5.0,10.0,66,0.00,,---,0.00,VWS V14.01,2013-08-02 23:00:00,
2013-08-02 16:02:00,75.1,63.0,29.89,South,188,9.0,10.0,67,0.00,,,0.00,weatherlink.com 1.10,2013-08-02 23:02:00,
2013-08-02 16:15:00,75.2,63.9,29.89,SSW,202,4.0,11.0,68,0.00,,---,0.00,VWS V14.01,2013-08-02 23:15:00,
2013-08-02 16:17:00,75.5,63.0,29.89,South,189,8.0,11.0,66,0.00,,,0.00,weatherlink.com 1.10,2013-08-02 23:17:00,
2013-08-02 16:30:00,75.4,63.7,29.88,SSW,202,4.0,10.0,67,0.00,,---,0.00,VWS V14.01,2013-08-02 23:30:00,
2013-08-02 16:32:00,75.4,64.0,29.88,SSW,207,3.0,10.0,67,0.00,,,0.00,weatherlink.com 1.10,2013-08-02 23:32:00,
2013-08-02 16:45:00,75.5,63.4,29.88,SSW,202,5.0,11.0,66,0.00,,---,0.00,VWS V14.01,2013-08-02 23:45:00,
2013-08-02 16:47:00,75.4,64.0,29.88,WSW,258,4.0,11.0,67,0.00,,,0.00,weatherlink.com 1.10,2013-08-02 23:47:00,
2013-08-02 17:00:00,75.2,63.1,29.89,SSW,202,6.0,13.0,66,0.00,,---,0.00,VWS V14.01,2013-08-03 00:00:00,
2013-08-02 17:02:00,74.6,63.0,29.89,SSW,206,4.0,12.0,67,0.00,,,0.00,weatherlink.com 1.10,2013-08-03 00:02:00,
2013-08-02 17:15:00,73.8,62.6,29.89,SSW,202,5.0,12.0,68,0.00,,---,0.00,VWS V14.01,2013-08-03 00:15:00,
2013-08-02 17:17:00,74.0,63.0,29.89,SSW,207,6.0,10.0,69,0.00,,,0.00,weatherlink.com 1.10,2013-08-03 00:17:00,
2013-08-02 17:30:00,74.2,63.0,29.89,SSW,202,5.0,14.0,68,0.00,,---,0.00,VWS V14.01,2013-08-03 00:30:00,
2013-08-02 17:32:00,73.8,63.0,29.89,SW,220,5.0,14.0,68,0.00,,,0.00,weatherlink.com 1.10,2013-08-03 00:32:00,
2013-08-02 17:45:00,73.1,62.7,29.89,SSW,202,5.0,14.0,70,0.00,,---,0.00,VWS V14.01,2013-08-03 00:45:00,
2013-08-02 17:47:00,72.8,62.0,29.89,South,187,6.0,14.0,70,0.00,,,0.00,weatherlink.com 1.10,2013-08-03 00:47:00,
2013-08-02 18:00:00,72.4,62.5,29.89,SSW,202,5.0,10.0,71,0.00,,---,0.00,VWS V14.01,2013-08-03 01:00:00,
2013-08-02 18:02:00,72.3,62.0,29.89,WSW,240,1.0,10.0,71,0.00,,,0.00,weatherlink.com 1.10,2013-08-03 01:02:00,
2013-08-02 18:15:00,71.5,62.0,29.89,SSW,202,5.0,10.0,72,0.00,,---,0.00,VWS V14.01,2013-08-03 01:15:00,
2013-08-02 18:17:00,71.0,62.0,29.89,WSW,250,4.0,9.0,73,0.00,,,0.00,weatherlink.com 1.10,2013-08-03 01:17:00,
2013-08-02 18:30:00,70.2,61.9,29.89,SSW,202,4.0,11.0,75,0.00,,---,0.00,VWS V14.01,2013-08-03 01:30:00,
2013-08-02 18:32:00,70.2,62.0,29.89,SSW,194,4.0,9.0,76,0.00,,,0.00,weatherlink.com 1.10,2013-08-03 01:32:00,
2013-08-02 18:45:00,69.9,62.4,29.89,SSW,202,4.0,9.0,77,0.00,,---,0.00,VWS V14.01,2013-08-03 01:45:00,
2013-08-02 18:47:00,69.6,62.0,29.89,South,188,3.0,10.0,77,0.00,,,0.00,weatherlink.com 1.10,2013-08-03 01:47:00,
2013-08-02 19:00:00,68.7,61.9,29.89,SSW,202,4.0,10.0,79,0.00,,---,0.00,VWS V14.01,2013-08-03 02:00:00,
2013-08-02 19:02:00,68.5,62.0,29.89,SW,225,8.0,9.0,80,0.00,,,0.00,weatherlink.com 1.10,2013-08-03 02:02:00,
2013-08-02 19:15:00,68.3,61.9,29.89,SSW,202,3.0,9.0,80,0.00,,---,0.00,VWS V14.01,2013-08-03 02:15:00,
2013-08-02 19:17:00,68.3,62.0,29.89,South,188,3.0,6.0,80,0.00,,,0.00,weatherlink.com 1.10,2013-08-03 02:17:00,
2013-08-02 19:30:00,67.7,62.0,29.89,SSW,202,3.0,8.0,82,0.00,,---,0.00,VWS V14.01,2013-08-03 02:30:00,
2013-08-02 19:32:00,67.6,62.0,29.89,SW,226,0.0,7.0,82,0.00,,,0.00,weatherlink.com 1.10,2013-08-03 02:32:00,
2013-08-02 19:45:00,67.1,61.8,29.89,SSW,202,2.0,6.0,83,0.00,,---,0.00,VWS V14.01,2013-08-03 02:45:00,
2013-08-02 19:47:00,67.0,62.0,29.89,SW,217,2.0,7.0,84,0.00,,,0.00,weatherlink.com 1.10,2013-08-03 02:47:00,
2013-08-02 20:00:00,66.5,61.9,29.90,SSW,202,3.0,7.0,85,0.00,,---,0.00,VWS V14.01,2013-08-03 03:00:00,
2013-08-02 20:02:00,66.4,62.0,29.90,South,191,4.0,7.0,85,0.00,,,0.00,weatherlink.com 1.10,2013-08-03 03:02:00,
2013-08-02 20:15:00,66.2,61.9,29.90,SSW,202,2.0,7.0,86,0.00,,---,0.00,VWS V14.01,2013-08-03 03:15:00,
2013-08-02 20:17:00,66.1,62.0,29.90,South,188,5.0,5.0,86,0.00,,,0.00,weatherlink.com 1.10,2013-08-03 03:17:00,
2013-08-02 20:30:00,65.9,61.9,29.90,SSW,202,2.0,5.0,87,0.00,,---,0.00,VWS V14.01,2013-08-03 03:30:00,
2013-08-02 20:32:00,65.8,62.0,29.91,SSW,211,4.0,6.0,88,0.00,,,0.00,weatherlink.com 1.10,2013-08-03 03:32:00,
2013-08-02 20:45:00,65.6,62.0,29.91,SSW,202,2.0,7.0,88,0.00,,---,0.00,VWS V14.01,2013-08-03 03:45:00,
2013-08-02 20:47:00,65.5,62.0,29.91,South,184,2.0,4.0,88,0.00,,,0.00,weatherlink.com 1.10,2013-08-03 03:47:00,
2013-08-02 21:00:00,65.3,61.7,29.92,SSW,202,1.0,5.0,88,0.00,,---,0.00,VWS V14.01,2013-08-03 04:00:00,
2013-08-02 21:02:00,65.2,62.0,29.92,South,190,1.0,6.0,89,0.00,,,0.00,weatherlink.com 1.10,2013-08-03 04:02:00,
2013-08-02 21:15:00,65.1,61.8,29.92,South,180,2.0,6.0,89,0.00,,---,0.00,VWS V14.01,2013-08-03 04:15:00,
2013-08-02 21:17:00,65.0,62.0,29.93,South,184,5.0,5.0,89,0.00,,,0.00,weatherlink.com 1.10,2013-08-03 04:17:00,
2013-08-02 21:30:00,64.8,61.5,29.93,SSW,202,2.0,5.0,89,0.00,,---,0.00,VWS V14.01,2013-08-03 04:30:00,
2013-08-02 21:32:00,64.7,62.0,29.93,South,179,0.0,5.0,90,0.00,,,0.00,weatherlink.com 1.10,2013-08-03 04:32:00,
2013-08-02 21:45:00,64.5,61.5,29.94,South,180,1.0,5.0,90,0.00,,---,0.00,VWS V14.01,2013-08-03 04:45:00,
2013-08-02 21:47:00,64.5,62.0,29.94,South,182,1.0,5.0,90,0.00,,,0.00,weatherlink.com 1.10,2013-08-03 04:47:00,
2013-08-02 22:00:00,64.3,61.6,29.94,SSW,202,1.0,5.0,91,0.00,,---,0.00,VWS V14.01,2013-08-03 05:00:00,
2013-08-02 22:02:00,64.3,62.0,29.94,South,183,3.0,5.0,91,0.00,,,0.00,weatherlink.com 1.10,2013-08-03 05:02:00,
2013-08-02 22:15:00,64.1,61.4,29.94,South,180,1.0,5.0,91,0.00,,---,0.00,VWS V14.01,2013-08-03 05:15:00,
2013-08-02 22:17:00,64.0,61.0,29.94,South,183,1.0,4.0,91,0.00,,,0.00,weatherlink.com 1.10,2013-08-03 05:17:00,
2013-08-02 22:30:00,63.8,61.1,29.94,South,180,0.0,4.0,91,0.00,,---,0.00,VWS V14.01,2013-08-03 05:30:00,
2013-08-02 22:32:00,63.7,61.0,29.95,South,183,0.0,2.0,91,0.00,,,0.00,weatherlink.com 1.10,2013-08-03 05:32:00,
2013-08-02 22:45:00,63.5,61.1,29.95,South,180,0.0,3.0,92,0.00,,---,0.00,VWS V14.01,2013-08-03 05:45:00,
2013-08-02 22:47:00,63.5,61.0,29.95,South,191,1.0,3.0,92,0.00,,,0.00,weatherlink.com 1.10,2013-08-03 05:47:00,
2013-08-02 23:00:00,63.4,60.7,29.95,South,180,1.0,3.0,91,0.00,,---,0.00,VWS V14.01,2013-08-03 06:00:00,
2013-08-02 23:02:00,63.2,61.0,29.95,South,191,3.0,3.0,91,0.00,,,0.00,weatherlink.com 1.10,2013-08-03 06:02:00,
2013-08-02 23:15:00,63.1,60.7,29.95,South,180,1.0,3.0,92,0.00,,---,0.00,VWS V14.01,2013-08-03 06:15:00,
2013-08-02 23:17:00,63.0,61.0,29.95,South,191,0.0,3.0,92,0.00,,,0.00,weatherlink.com 1.10,2013-08-03 06:17:00,
2013-08-02 23:30:00,62.9,60.5,29.95,South,180,1.0,4.0,92,0.00,,---,0.00,VWS V14.01,2013-08-03 06:30:00,
2013-08-02 23:32:00,62.8,61.0,29.95,South,191,0.0,2.0,92,0.00,,,0.00,weatherlink.com 1.10,2013-08-03 06:32:00,
2013-08-02 23:45:00,62.6,60.2,29.95,South,180,1.0,3.0,92,0.00,,---,0.00,VWS V14.01,2013-08-03 06:45:00,
2013-08-02 23:47:00,62.6,60.0,29.95,South,191,2.0,3.0,92,0.00,,,0.00,weatherlink.com 1.10,2013-08-03 06:47:00,